VLG9GE LEBL-EFRO

Flight info

Callsign VLG9GE
Flight time N/A
Altitude 34000
Route DALIN DCT PIVUS DCT DIBER DCT SECON DCT ODIXU DCT MAXIR DCT LUSOL DCT BODRU DCT OKTET DCT IRMAR DCT KINES DCT VANAS DCT ESOKO DCT GODRA/N0450F350 DCT LOKTA DCT TIKNI DCT ROBEL DCT KENIG DCT SALLO DCT VALAK DCT NEPIX
Aircraft A321/M-SDE3FGHIRWY/LB1

Departure

Time N/A
Airport Josep Tarradellas Barcelona-El Prat Airport (LEBL)

Arrival

Time 2026-04-30 21:09
Airport Rovaniemi Airport (EFRO)
Time Latitude Longitude Altitude Speed Heading
2026-04-30 19:17 55.73100 13.92418 34404 ft 421 kts 20°
2026-04-30 19:17 55.81317 13.97969 34404 ft 421 kts 20°
2026-04-30 19:18 55.89523 14.03547 34398 ft 421 kts 20°
2026-04-30 19:19 55.94989 14.07271 34399 ft 420 kts 20°
2026-04-30 19:19 56.03141 14.12863 34401 ft 420 kts 20°
2026-04-30 19:20 56.08597 14.16619 34402 ft 420 kts 20°
2026-04-30 19:21 56.16776 14.22265 34405 ft 420 kts 20°
2026-04-30 19:22 56.27675 14.29827 34406 ft 420 kts 20°
2026-04-30 19:23 56.43069 14.40615 34399 ft 419 kts 20°
2026-04-30 19:24 56.51223 14.46346 34394 ft 419 kts 20°
2026-04-30 19:25 56.64800 14.55941 34382 ft 419 kts 20°
2026-04-30 19:26 56.75649 14.63677 34373 ft 418 kts 20°
2026-04-30 19:27 56.83680 14.69437 34368 ft 419 kts 20°
2026-04-30 19:28 56.91812 14.75307 34368 ft 419 kts 20°
2026-04-30 19:29 57.02623 14.83142 34369 ft 419 kts 20°
2026-04-30 19:30 57.13462 14.91033 34366 ft 419 kts 20°
2026-04-30 19:31 57.24305 14.98970 34365 ft 419 kts 20°
2026-04-30 19:31 57.32432 15.04977 34367 ft 419 kts 20°
2026-04-30 19:32 57.37853 15.08992 34364 ft 419 kts 20°
2026-04-30 19:32 57.43273 15.13013 34360 ft 420 kts 20°
2026-04-30 19:33 57.48658 15.17026 34362 ft 420 kts 20°
2026-04-30 19:33 57.54076 15.21078 34363 ft 420 kts 20°
2026-04-30 19:34 57.59499 15.25160 34363 ft 420 kts 20°
2026-04-30 19:35 57.67623 15.31276 34368 ft 420 kts 20°
2026-04-30 19:35 57.73032 15.35364 34370 ft 419 kts 20°
2026-04-30 19:36 57.78439 15.39464 34366 ft 419 kts 20°
2026-04-30 19:36 57.86547 15.45637 34367 ft 419 kts 20°
2026-04-30 19:37 57.91941 15.49762 34363 ft 419 kts 20°
2026-04-30 19:37 57.97330 15.53894 34365 ft 418 kts 20°
2026-04-30 19:38 58.02684 15.58017 34356 ft 418 kts 20°
2026-04-30 19:38 58.08066 15.62173 34361 ft 418 kts 20°
2026-04-30 19:39 58.13443 15.66338 34362 ft 417 kts 20°
2026-04-30 19:39 58.18820 15.70510 34354 ft 417 kts 20°
2026-04-30 19:40 58.24094 15.74626 34346 ft 417 kts 21°
2026-04-30 19:40 58.29461 15.78825 34350 ft 417 kts 21°
2026-04-30 19:41 58.34819 15.83040 34353 ft 416 kts 21°
2026-04-30 19:41 58.40175 15.87271 34351 ft 416 kts 21°
2026-04-30 19:42 58.45524 15.91497 34349 ft 416 kts 21°
2026-04-30 19:42 58.50831 15.95699 34332 ft 416 kts 21°
2026-04-30 19:43 58.56169 15.99941 34323 ft 415 kts 21°
2026-04-30 19:44 58.64165 16.06319 34322 ft 414 kts 21°
2026-04-30 19:44 58.69491 16.10578 34324 ft 414 kts 21°
2026-04-30 19:45 58.74805 16.14858 34330 ft 414 kts 21°
2026-04-30 19:45 58.80110 16.19157 34333 ft 413 kts 21°
2026-04-30 19:46 58.85414 16.23460 34329 ft 413 kts 21°
2026-04-30 19:46 58.90714 16.27760 34328 ft 413 kts 21°
2026-04-30 19:47 58.96001 16.32066 34328 ft 412 kts 21°
2026-04-30 19:47 59.01288 16.36386 34323 ft 412 kts 21°
2026-04-30 19:48 59.06533 16.40705 34324 ft 412 kts 21°
2026-04-30 19:48 59.11808 16.45059 34324 ft 411 kts 21°
2026-04-30 19:49 59.17079 16.49406 34321 ft 411 kts 21°
2026-04-30 19:49 59.25011 16.55988 34320 ft 411 kts 21°
2026-04-30 19:50 59.30266 16.60369 34320 ft 411 kts 21°
2026-04-30 19:50 59.35517 16.64764 34316 ft 410 kts 21°
2026-04-30 19:51 59.40727 16.69128 34317 ft 410 kts 21°
2026-04-30 19:51 59.45974 16.73554 34317 ft 410 kts 21°
2026-04-30 19:52 59.51212 16.77979 34319 ft 410 kts 21°
2026-04-30 19:52 59.56452 16.82402 34319 ft 409 kts 21°
2026-04-30 19:53 59.61681 16.86857 34318 ft 409 kts 21°
2026-04-30 19:53 59.66911 16.91329 34316 ft 409 kts 21°
2026-04-30 19:54 59.72140 16.95805 34311 ft 409 kts 21°
2026-04-30 19:54 59.77367 17.00291 34308 ft 409 kts 21°
2026-04-30 19:55 59.82596 17.04792 34307 ft 409 kts 21°
2026-04-30 19:55 59.87782 17.09273 34304 ft 409 kts 21°
2026-04-30 19:56 59.93005 17.13819 34303 ft 410 kts 21°
2026-04-30 19:56 59.98231 17.18381 34301 ft 410 kts 21°
2026-04-30 19:57 60.03457 17.22945 34297 ft 410 kts 21°
2026-04-30 19:57 60.08685 17.27523 34301 ft 410 kts 21°
2026-04-30 19:58 60.13916 17.32125 34298 ft 411 kts 21°
2026-04-30 19:58 60.19145 17.36753 34299 ft 411 kts 21°
2026-04-30 19:59 60.24376 17.41393 34309 ft 411 kts 21°
2026-04-30 20:00 60.32231 17.48385 34306 ft 411 kts 21°
2026-04-30 20:00 60.37468 17.53068 34306 ft 412 kts 21°
2026-04-30 20:01 60.45329 17.60119 34304 ft 412 kts 21°
2026-04-30 20:01 60.50533 17.64814 34307 ft 412 kts 21°
2026-04-30 20:02 60.58396 17.71935 34297 ft 413 kts 21°
2026-04-30 20:03 60.66268 17.79125 34303 ft 413 kts 21°
2026-04-30 20:03 60.71516 17.83927 34301 ft 413 kts 21°
2026-04-30 20:04 60.76765 17.88743 34312 ft 413 kts 21°
2026-04-30 20:05 60.84640 17.96008 34311 ft 414 kts 21°
2026-04-30 20:05 60.92510 18.03315 34316 ft 414 kts 21°
2026-04-30 20:06 60.97732 18.08181 34311 ft 415 kts 21°
2026-04-30 20:06 61.02989 18.13085 34312 ft 415 kts 21°
2026-04-30 20:07 61.08249 18.18020 34315 ft 415 kts 21°
2026-04-30 20:08 61.16139 18.25470 34313 ft 415 kts 21°
2026-04-30 20:08 61.21393 18.30445 34311 ft 416 kts 21°
2026-04-30 20:09 61.26658 18.35436 34315 ft 416 kts 21°
2026-04-30 20:09 61.34550 18.42964 34310 ft 416 kts 20°
2026-04-30 20:10 61.42439 18.50558 34312 ft 417 kts 21°
2026-04-30 20:11 61.50337 18.58199 34307 ft 417 kts 20°
2026-04-30 20:11 61.55572 18.63275 34303 ft 417 kts 21°
2026-04-30 20:12 61.63476 18.70982 34301 ft 418 kts 20°
2026-04-30 20:13 61.68742 18.76145 34301 ft 418 kts 20°
2026-04-30 20:13 61.73160 18.80474 34298 ft 418 kts 20°
2026-04-30 20:14 61.78396 18.85636 34295 ft 418 kts 20°
2026-04-30 20:14 61.83667 18.90862 34296 ft 419 kts 20°
2026-04-30 20:15 61.88943 18.96107 34297 ft 419 kts 20°
2026-04-30 20:15 61.94219 19.01365 34295 ft 419 kts 20°
2026-04-30 20:16 61.99501 19.06652 34292 ft 419 kts 20°
2026-04-30 20:16 62.04778 19.11956 34291 ft 420 kts 20°
2026-04-30 20:17 62.10059 19.17293 34293 ft 420 kts 20°
2026-04-30 20:17 62.15307 19.22609 34292 ft 420 kts 20°
2026-04-30 20:18 62.20585 19.27984 34289 ft 420 kts 20°
2026-04-30 20:18 62.25866 19.33381 34290 ft 420 kts 20°
2026-04-30 20:19 62.31143 19.38789 34286 ft 420 kts 20°
2026-04-30 20:19 62.36427 19.44219 34283 ft 421 kts 20°
2026-04-30 20:20 62.41704 19.49673 34281 ft 421 kts 20°
2026-04-30 20:20 62.46985 19.55143 34279 ft 421 kts 20°
2026-04-30 20:21 62.52267 19.60652 34274 ft 421 kts 20°
2026-04-30 20:21 62.57550 19.66178 34273 ft 422 kts 20°
2026-04-30 20:22 62.62834 19.71730 34271 ft 422 kts 20°
2026-04-30 20:22 62.68083 19.77256 34271 ft 422 kts 20°
2026-04-30 20:23 62.73364 19.82840 34267 ft 422 kts 20°
2026-04-30 20:23 62.78648 19.88448 34261 ft 422 kts 20°
2026-04-30 20:24 62.83798 19.93933 34261 ft 423 kts 21°
2026-04-30 20:24 62.89082 19.99606 34263 ft 423 kts 20°
2026-04-30 20:25 62.97008 20.08126 34258 ft 423 kts 21°
2026-04-30 20:26 63.04939 20.16718 34262 ft 423 kts 21°
2026-04-30 20:26 63.12859 20.25351 34247 ft 423 kts 20°
2026-04-30 20:27 63.23385 20.36896 34248 ft 423 kts 21°
2026-04-30 20:28 63.33917 20.48539 34239 ft 423 kts 20°
2026-04-30 20:30 63.46799 20.64784 34235 ft 429 kts 28°
2026-04-30 20:31 63.61644 20.87211 34229 ft 429 kts 28°
2026-04-30 20:32 63.73952 21.05990 34230 ft 429 kts 28°
2026-04-30 20:33 63.81345 21.17373 34231 ft 428 kts 28°
2026-04-30 20:34 63.88721 21.28834 34220 ft 428 kts 28°
2026-04-30 20:35 63.96087 21.40330 34219 ft 428 kts 28°
2026-04-30 20:35 64.03440 21.51891 34217 ft 428 kts 28°
2026-04-30 20:36 64.08341 21.59625 34218 ft 428 kts 28°
2026-04-30 20:37 64.15680 21.71258 34211 ft 428 kts 28°
2026-04-30 20:37 64.20569 21.79067 34211 ft 428 kts 28°
2026-04-30 20:38 64.25415 21.86844 34205 ft 428 kts 28°
2026-04-30 20:38 64.30288 21.94703 34198 ft 428 kts 28°
2026-04-30 20:39 64.37602 22.06517 34196 ft 428 kts 28°
2026-04-30 20:40 64.44894 22.18424 34201 ft 428 kts 28°
2026-04-30 20:40 64.49750 22.26397 34194 ft 427 kts 28°
2026-04-30 20:41 64.57023 22.38369 34191 ft 427 kts 28°
2026-04-30 20:41 64.61862 22.46371 34197 ft 427 kts 28°
2026-04-30 20:42 64.66669 22.54375 34193 ft 427 kts 28°
2026-04-30 20:43 64.73899 22.66505 34184 ft 427 kts 28°
2026-04-30 20:43 64.78718 22.74628 34181 ft 426 kts 28°
2026-04-30 20:44 64.85931 22.86844 34178 ft 426 kts 28°
2026-04-30 20:45 64.95547 23.03229 34017 ft 427 kts 28°
2026-04-30 20:45 64.97947 23.07357 33739 ft 427 kts 29°
2026-04-30 20:45 65.00341 23.11492 33468 ft 427 kts 29°
2026-04-30 20:46 65.07534 23.23937 32587 ft 424 kts 29°
2026-04-30 20:46 65.09905 23.28051 32084 ft 420 kts 29°
2026-04-30 20:47 65.14586 23.36198 31103 ft 414 kts 29°
2026-04-30 20:47 65.16893 23.40234 30597 ft 410 kts 29°
2026-04-30 20:48 65.21450 23.48239 29584 ft 403 kts 29°
2026-04-30 20:48 65.23692 23.52185 29095 ft 398 kts 29°
2026-04-30 20:48 65.25907 23.56087 28629 ft 394 kts 29°
2026-04-30 20:48 65.28096 23.59951 28163 ft 389 kts 29°
2026-04-30 20:49 65.30262 23.63784 27697 ft 385 kts 29°
2026-04-30 20:49 65.32406 23.67585 27245 ft 382 kts 29°
2026-04-30 20:49 65.34529 23.71363 26796 ft 379 kts 29°
2026-04-30 20:50 65.38726 23.78841 25940 ft 373 kts 29°
2026-04-30 20:50 65.40803 23.82554 25503 ft 371 kts 29°
2026-04-30 20:50 65.42866 23.86254 25090 ft 369 kts 29°
2026-04-30 20:50 65.44919 23.89945 24677 ft 367 kts 29°
2026-04-30 20:51 65.46958 23.93613 24280 ft 365 kts 29°
2026-04-30 20:51 65.50960 24.00848 23456 ft 360 kts 29°
2026-04-30 20:51 65.52948 24.04453 23046 ft 355 kts 29°
2026-04-30 20:52 65.54910 24.08017 22648 ft 351 kts 29°
2026-04-30 20:52 65.56846 24.11535 22258 ft 346 kts 29°
2026-04-30 20:52 65.60645 24.18449 21474 ft 338 kts 29°
2026-04-30 20:53 65.62513 24.21856 21074 ft 335 kts 29°
2026-04-30 20:53 65.64362 24.25242 20678 ft 332 kts 29°
2026-04-30 20:53 65.66199 24.28612 20275 ft 330 kts 29°
2026-04-30 20:54 65.69841 24.35308 19466 ft 327 kts 29°
2026-04-30 20:54 65.71653 24.38643 19051 ft 326 kts 30°
2026-04-30 20:54 65.73454 24.41963 18646 ft 325 kts 30°
2026-04-30 20:55 65.77039 24.48599 17792 ft 322 kts 30°
2026-04-30 20:55 65.78811 24.51896 17378 ft 319 kts 30°
2026-04-30 20:55 65.80569 24.55166 16973 ft 317 kts 30°
2026-04-30 20:56 65.84058 24.61671 16165 ft 313 kts 30°
2026-04-30 20:56 65.85782 24.64898 15770 ft 312 kts 30°
2026-04-30 20:56 65.89179 24.71272 14983 ft 308 kts 31°
2026-04-30 20:57 65.90875 24.74469 14589 ft 307 kts 31°
2026-04-30 20:57 65.92560 24.77655 14194 ft 306 kts 31°
2026-04-30 20:57 65.94244 24.80837 13788 ft 305 kts 31°
2026-04-30 20:58 65.97578 24.87148 12984 ft 300 kts 31°
2026-04-30 20:58 65.99225 24.90268 12591 ft 298 kts 32°
2026-04-30 20:58 66.00859 24.93369 12207 ft 296 kts 32°
2026-04-30 20:58 66.02484 24.96455 11828 ft 294 kts 32°
2026-04-30 20:59 66.05710 25.02600 11065 ft 292 kts 32°
2026-04-30 20:59 66.07309 25.05662 10702 ft 291 kts 32°
2026-04-30 21:00 66.10463 25.11693 10272 ft 283 kts 30°
2026-04-30 21:00 66.13836 25.16519 10102 ft 280 kts 24°
2026-04-30 21:01 66.17268 25.21230 9324 ft 281 kts 24°
2026-04-30 21:01 66.18967 25.23577 8952 ft 279 kts 25°
2026-04-30 21:01 66.22334 25.28232 8228 ft 275 kts 25°
2026-04-30 21:02 66.24003 25.30547 7866 ft 274 kts 25°
2026-04-30 21:02 66.25661 25.32844 7510 ft 272 kts 25°
2026-04-30 21:02 66.27309 25.35129 7155 ft 271 kts 25°
2026-04-30 21:02 66.28953 25.37420 6798 ft 270 kts 26°
2026-04-30 21:03 66.30589 25.39709 6447 ft 269 kts 26°
2026-04-30 21:03 66.32214 25.41982 6066 ft 268 kts 26°
2026-04-30 21:03 66.33288 25.43484 5831 ft 267 kts 26°
2026-04-30 21:03 66.35442 25.46503 5369 ft 265 kts 26°
2026-04-30 21:04 66.36505 25.47993 5116 ft 265 kts 26°
2026-04-30 21:04 66.38106 25.50241 4740 ft 264 kts 26°
2026-04-30 21:04 66.41242 25.54661 4044 ft 246 kts 26°
2026-04-30 21:05 66.42649 25.56852 3743 ft 229 kts 33°
2026-04-30 21:05 66.43878 25.59140 3490 ft 214 kts 34°
2026-04-30 21:05 66.45062 25.61382 3216 ft 211 kts 34°
2026-04-30 21:05 66.46186 25.63523 2946 ft 194 kts 34°
2026-04-30 21:06 66.47219 25.65486 2631 ft 181 kts 33°
2026-04-30 21:06 66.48206 25.67354 2417 ft 172 kts 33°
2026-04-30 21:06 66.49141 25.69120 2241 ft 166 kts 33°
2026-04-30 21:06 66.50048 25.70833 2039 ft 162 kts 33°
2026-04-30 21:07 66.50941 25.72530 1812 ft 161 kts 33°
2026-04-30 21:07 66.51803 25.74164 1612 ft 151 kts 33°
2026-04-30 21:07 66.52630 25.75733 1385 ft 147 kts 34°
2026-04-30 21:07 66.53438 25.77270 1154 ft 145 kts 36°
2026-04-30 21:08 66.54243 25.78796 944 ft 145 kts 36°
2026-04-30 21:08 66.55038 25.80292 762 ft 145 kts 36°
2026-04-30 21:08 66.55849 25.81833 627 ft 144 kts 37°
2026-04-30 21:08 66.56525 25.83119 632 ft 100 kts 37°
2026-04-30 21:09 66.56921 25.83877 623 ft 38 kts 37°
2026-04-30 21:09 66.57088 25.84199 623 ft 18 kts 36°
2026-04-30 21:09 66.57164 25.84404 617 ft 17 kts 67°
2026-04-30 21:09 66.57129 25.84651 615 ft 14 kts 154°
2026-04-30 21:10 66.57024 25.84622 620 ft 17 kts 217°
2026-04-30 21:10 66.56928 25.84437 611 ft 16 kts 216°
2026-04-30 21:10 66.56843 25.84271 621 ft 16 kts 215°
2026-04-30 21:10 66.56754 25.84108 614 ft 15 kts 218°
2026-04-30 21:11 66.56677 25.83957 622 ft 13 kts 217°
2026-04-30 21:11 66.56608 25.83826 627 ft 12 kts 217°
2026-04-30 21:11 66.56547 25.83712 626 ft 10 kts 216°
2026-04-30 21:11 66.56492 25.83609 628 ft 10 kts 217°
2026-04-30 21:12 66.56440 25.83508 630 ft 10 kts 217°
2026-04-30 21:12 66.56374 25.83383 629 ft 14 kts 216°
2026-04-30 21:12 66.56288 25.83219 628 ft 17 kts 218°
2026-04-30 21:12 66.56190 25.83026 628 ft 18 kts 217°
2026-04-30 21:13 66.56082 25.82824 626 ft 21 kts 217°
2026-04-30 21:13 66.55979 25.82631 629 ft 18 kts 219°
2026-04-30 21:13 66.55899 25.82488 621 ft 9 kts 196°
2026-04-30 21:13 66.55854 25.82559 624 ft 7 kts 135°
2026-04-30 21:14 66.55836 25.82601 625 ft 1 kts 137°
2026-04-30 21:14 66.55829 25.82619 624 ft 0 kts 137°